Simultaneous Nadir Overpasses (SNOs) Predictions

Prediction of SNOs between AQUA and GOES-15 Satellite Orbit:

Table of predicted SNOs for the next 14.0 days since TLE Epoch: 9/4/2020
Index Date Time (AQUA) AQUA Lat,Lon GOES-15 Lat,Lon Distance(km) Time Diff (sec)
1 09/04/2020 21:58:12 0.51,-125.70 0.08,-127.88 247.19 80
2 09/05/2020 10:19:28 0.52,-130.87 -0.08,-127.95 331.29 80
3 09/07/2020 10:07:16 -0.08,-127.90 -0.08,-128.01 12.18 80
4 09/09/2020 09:55:05 -0.74,-124.95 -0.09,-128.07 354.33 80
5 09/09/2020 22:16:30 -0.34,-130.15 0.09,-128.03 240.55 80
6 09/11/2020 22:04:18 0.27,-127.19 0.09,-128.08 100.91 80
7 09/12/2020 10:25:33 0.82,-132.35 -0.10,-128.14 478.49 80
8 09/13/2020 21:52:07 0.94,-124.24 0.10,-128.12 441.71 80
9 09/14/2020 10:13:22 0.15,-129.40 -0.10,-128.19 137.78 80
10 09/16/2020 10:01:10 -0.46,-126.44 -0.11,-128.22 202.62 80
11 09/16/2020 22:22:35 -0.61,-131.64 0.11,-128.18 392.27 80
